FENGYUN 1C DEB, 30035

Orbit data source: Space-Track

FENGYUN 1C DEB, 30035 is space debris in SSO originally from a launch on Mon, 10 May 1999 UTC launched from the Taiyaun Space Center, China (TSC). Fengyun 1C debris stems from the Chinese weather satellite Fengyun-1C, which was intentionally destroyed by a Chinese anti-satellite missile in 2007. This event dramatically increased the amount of space debris, with thousands of trackable fragments posing hazards to satellites and human spaceflight. The Fengyun 1C debris cloud has become a focal point in discussions about space sustainability and the need for international regulations to prevent the creation of new debris.

Loading next visibility...
Identifier
30035, 1999-025NL
Orbit
SSO
Country
Flag of CNCN / PRC
Related business
Manufacturer
Unknown
Mission
Spacecraft
Bus & Motor
Unknown
Mass
Unknown
Launch date (UTC)
1999-05-10 (27 years ago)
Launch vehicle
Unknown
Launch site
Taiyaun Space Center, China (TSC)
Object type
Payload
Rocket body
Debris
Shape & HBR
Unknown shape, 0.1 m
Radar Cross Section
Medium (>0.1 m² and <1 m²)

Expand to show TLE details & history
Last TLE update: 2 days ago

TLE from 2 days ago
0 FENGYUN 1C DEB
1 30035U 99025NL  26237.40058414  .00000139  00000-0  60102-4 0  9998
2 30035  99.2785 177.0110 0115238  37.6141  90.0926 14.37087343 27962
Epoch: 2026-08-25T09:36Z
TLE epoch observation values (Epoch: 2026-08-25T09:36:50.469Z)
Latitude
50.15834°
Longitude
-109.63754°
Altitude
777.172 km
Speed
7.47 km/s
True Right ascension
00h 32m 57s
True Declination
49° 59' 22"
Sunlit
Object was in daylight at epoch
Visualization orbit readout
Latitude
Unknown
Longitude
Unknown
Altitude
Unknown
Speed
Unknown
Apparent Right ascension
Unknown
Apparent Declination
Unknown
Sunlit
N/A
Visualization observer readout
Local Sidereal Time
14:40:30
Azimuth
Unknown
Elevation
Unknown
Doppler factor
Unknown
Orbital elements
Apogee altitude
847.621 km
Perigee altitude
682.982 km
Semi-major axis
7,143.439 km
Eccentricity
0.01152
Inclination
99.2785°
RAAN
177.011°
Arg. of periapsis
37.6141°
True anomaly
91.41298°
Mean anomaly
90.0926°
Eccentric anomaly
90.75281°
Mean motion
3.59486 °/min
Orbital period
100.14 mins
BSTAR
0.000060102
Loading maneuver chart data...
Computing Atmospheric mass density...
Loading historical data...
Loading historical data...
Loading historical data...
Loading historical data...
Loading historical data...
Loading historical data...
Loading historical data...

Documentation

Showing up to 5 results
|